Flag for France Weather past 2 weeks in Strasbourg, France

Now
43 °F

Overcast.


Feels Like: 37 °F
Forecast: 35 / 46 °F
Wind: 10 mph from South

Location: Strasbourg Airport

Current Time: Dec 22, 2014 at 9:33:08 AM

Latest Report: Dec 22, 2014 at 9:00 AM


Visibility: N/A

Pressure: 30.42 "Hg

Humidity: 76%

Dew point: 36 °F

Location of StrasbourgLocation

Historic Weather in Strasbourg — Graph

°F

Strasbourg temperature yesterday

Maximum temperature yesterday: 46 °F (at 11:30 AM)
Minimum temperature yesterday: 37 °F (at 12:30 AM)
Average temperature yesterday: 43 °F

Past Weeks' High & Low Weather Summary

 TemperatureHumidityPressure
High57 °F (Dec 18, 8:00 PM)100% (Dec 8, 10:30 PM)30.54 "Hg (Dec 8, 10:30 PM)
Low28 °F (Dec 10, 12:30 AM)44% (Dec 15, 2:30 PM)29.74 "Hg (Dec 12, 5:00 PM)
Average44 °F84%30.11 "Hg
* Reported Dec 7 8:00 AM — Dec 22 8:30 AM, Strasbourg, Weather by CustomWeather, © 2014

Note: Actual official high and low records may vary slightly from our data, if they occured in-between our weather recording intervals... More about our weather records

Advertising

Strasbourg weather history for previous 24 hours

 ConditionsComfort  
Time TempWeatherWind HumidityBarometerVisibility
8:30 AM
Dec 22
43 °FMostly cloudy.9 mph76%30.42 "HgN/A
8:00 AM43 °FMostly cloudy.9 mph76%30.42 "HgN/A
7:30 AM43 °FOvercast.13 mph76%30.39 "HgN/A
7:00 AM43 °FOvercast.13 mph76%30.39 "HgN/A
6:30 AM43 °FOvercast.12 mph76%30.39 "HgN/A
6:00 AM45 °FOvercast.13 mph71%30.39 "HgN/A
5:30 AM45 °FOvercast.12 mph71%30.39 "HgN/A
4:30 AM45 °FOvercast.8 mph71%30.42 "HgN/A
4:00 AM45 °FOvercast.9 mph71%30.42 "HgN/A
3:30 AM45 °FOvercast.9 mph71%30.45 "HgN/A
3:00 AM45 °FOvercast.10 mph71%30.45 "HgN/A
2:30 AM45 °FOvercast.15 mph71%30.45 "HgN/A
2:00 AM45 °FOvercast.9 mph71%30.45 "HgN/A
1:30 AM45 °FOvercast.8 mph71%30.48 "HgN/A
1:00 AM45 °FOvercast.13 mph71%30.45 "HgN/A
12:30 AM46 °FOvercast.14 mph66%30.45 "HgN/A
12:00 AM45 °FOvercast.13 mph71%30.45 "HgN/A
11:30 PM
Dec 21
46 °FOvercast.13 mph66%30.48 "HgN/A
10:30 PM46 °FOvercast.12 mph66%30.48 "HgN/A
10:00 PM45 °FOvercast.9 mph76%30.48 "HgN/A
9:30 PM45 °FOvercast.10 mph76%30.48 "HgN/A
9:00 PM45 °FOvercast.10 mph76%30.48 "HgN/A
8:30 PM45 °FOvercast.10 mph76%30.51 "HgN/A
8:00 PM45 °FOvercast.9 mph76%30.48 "HgN/A
7:30 PM45 °FOvercast.10 mph76%30.51 "HgN/A
7:00 PM45 °FOvercast.12 mph71%30.51 "HgN/A
6:30 PM45 °FOvercast.8 mph76%30.51 "HgN/A
6:00 PM45 °FOvercast.9 mph76%30.48 "HgN/A
5:30 PM45 °FMostly cloudy.8 mph76%30.51 "HgN/A
5:00 PM46 °FOvercast.10 mph66%30.48 "HgN/A
4:30 PM46 °FOvercast.7 mph66%30.51 "HgN/A
4:00 PM46 °FOvercast.7 mph66%30.51 "HgN/A
3:30 PM46 °FMostly cloudy.9 mph71%30.51 "HgN/A
3:00 PM46 °FMostly cloudy.8 mph71%30.51 "HgN/A
2:30 PM46 °FOvercast.10 mph71%30.51 "HgN/A
2:00 PM46 °FOvercast.9 mph71%30.51 "HgN/A
1:30 PM46 °FMostly cloudy.8 mph66%30.54 "HgN/A
1:00 PM46 °FMostly cloudy.9 mph71%30.54 "HgN/A
12:30 PM46 °FOvercast.8 mph76%30.54 "HgN/A
12:00 PM46 °FOvercast.10 mph71%30.54 "HgN/A
11:30 AM46 °FPartly sunny.9 mph76%30.54 "HgN/A
11:00 AM45 °FScattered clouds.8 mph81%30.54 "HgN/A
10:30 AM43 °FPartly sunny.7 mph81%30.54 "HgN/A
10:00 AM39 °FBroken clouds.6 mph93%30.54 "HgN/A
9:30 AM39 °FPassing clouds.7 mph93%30.54 "HgN/A
9:00 AM39 °FPartly sunny.8 mph93%30.54 "HgN/A
Weather by CustomWeather, © 2014

See weather overviewHow to use our weather pages